Houston Clover, TX

4:24 PM CST on November 13, 2019 (GMT -0600)
Clover

Weather History for KLVJ - September, 2019

Change the Weather History Date:

Monday, September 16, 2019

  Actual Average (KEFD) Record (KEFD)
Temperature  
Mean Temperature 81 °F -  
Max Temperature 89 °F 87 °F 96 °F (2004)
Min Temperature 75 °F 70 °F 62 °F (2008)
Cooling Degree Days 16    
Growing Degree Days 31 (Base 50)    
Moisture  
Dew Point 73 °F    
Average Humidity 79    
Maximum Humidity 94    
Minimum Humidity 59    
Precipitation  
Precipitation 0.32 in - - ()
Sea Level Pressure  
Sea Level Pressure 29.96 in    
Wind  
Wind Speed 6 mph (ENE)    
Max Wind Speed 21 mph    
Max Gust Speed 30 mph    
Visibility 9 miles    
Events Rain    
Averages and records for this station are not official NWS values.
T = Trace of Precipitation, MM = Missing Value Source: NWS Daily Summary

Daily Weather History Graph

Daily Weather History Graph

Search for Another Location

Airport or City:

Astronomy

Sep. 16, 2019 Rise Set
Actual Time 7:06 AM CDT 7:25 PM CDT
Civil Twilight 6:42 AM CDT 7:48 PM CDT
Nautical Twilight 6:14 AM CDT 8:16 PM CDT
Astronomical Twilight 5:46 AM CDT 8:44 PM CDT
Moon 9:09 PM CDT (9/16) 9:07 AM CDT (9/16)
Length of Visible Light 13h 06m
Length of Day
12h 19m
Waning Gibbous, 94% of the Moon is Illuminated
Sep 16
Waning Gibbous
Sep 21
Last Quarter
Sep 28
New
Oct 5
First Quarter
Oct 13
Full

Hourly Weather History & Observations

Time (CDT) Temp. Heat Index Dew Point Humidity Pressure Visibility Wind Dir Wind Speed Gust Speed Precip Events Conditions
12:53 AM 77.0 °F - 72.0 °F 84% 30.00 in 10.0 mi Calm Calm - N/A   Clear
1:53 AM 77.0 °F - 72.0 °F 84% 29.99 in 10.0 mi Calm Calm - N/A   Clear
2:53 AM 75.9 °F - 72.0 °F 87% 29.99 in 10.0 mi Calm Calm - N/A   Clear
3:53 AM 75.9 °F - 72.0 °F 87% 29.98 in 9.0 mi NNW 3.5 mph - N/A   Clear
4:53 AM 77.0 °F - 72.0 °F 84% 29.97 in 10.0 mi Calm Calm - N/A   Clear
5:53 AM 77.0 °F - 72.0 °F 84% 29.97 in 9.0 mi NNW 3.5 mph - N/A   Clear
6:53 AM 78.1 °F - 73.0 °F 84% 29.98 in 9.0 mi North 4.6 mph - N/A   Clear
8:53 AM 82.9 °F 90.2 °F 75.0 °F 77% 29.99 in 10.0 mi NNE 11.5 mph - N/A   Clear
9:53 AM 84.9 °F 90.1 °F 71.1 °F 63% 30.00 in 10.0 mi NE 11.5 mph - N/A   Clear
10:53 AM 86.0 °F 90.7 °F 70.0 °F 59% 30.01 in 10.0 mi ENE 12.7 mph - N/A   Scattered Clouds
11:53 AM 86.0 °F 91.5 °F 71.1 °F 61% 29.99 in 10.0 mi ENE 17.3 mph - N/A   Mostly Cloudy
12:53 PM 86.0 °F 92.2 °F 72.0 °F 63% 29.99 in 9.0 mi East 20.7 mph 28.8 mph 0.00 in Rain Light Rain
12:59 PM 82.0 °F 87.9 °F 73.9 °F 76% 29.99 in 1.8 mi ENE 18.4 mph 29.9 mph 0.11 in Rain Heavy Rain
1:10 PM 82.0 °F 88.6 °F 75.0 °F 79% 29.98 in 4.0 mi East 11.5 mph - 0.15 in Rain Light Rain
1:53 PM 86.0 °F 93.8 °F 73.9 °F 67% 29.96 in 10.0 mi East 13.8 mph 20.7 mph 0.15 in   Partly Cloudy
2:53 PM 87.1 °F 93.6 °F 72.0 °F 61% 29.93 in 10.0 mi East 13.8 mph - N/A   Partly Cloudy
3:53 PM 84.9 °F 92.1 °F 73.9 °F 69% 29.93 in 10.0 mi East 15.0 mph - N/A   Scattered Clouds
4:53 PM 82.9 °F 88.8 °F 73.0 °F 72% 29.93 in 10.0 mi East 9.2 mph - N/A   Mostly Cloudy
5:53 PM 81.0 °F 86.2 °F 73.9 °F 79% 29.93 in 4.0 mi East 10.4 mph - 0.01 in Rain Light Rain
6:53 PM 78.1 °F - 75.0 °F 90% 29.91 in 10.0 mi ENE 8.1 mph - 0.00 in   Scattered Clouds
7:53 PM 79.0 °F - 75.0 °F 88% 29.92 in 10.0 mi NE 5.8 mph - N/A   Mostly Cloudy
8:05 PM 79.0 °F - 75.0 °F 88% 29.93 in 2.5 mi East 11.5 mph - 0.08 in Rain Heavy Rain
8:38 PM 77.0 °F - 73.9 °F 90% 29.93 in 10.0 mi ENE 4.6 mph - 0.08 in   Overcast
8:53 PM 77.0 °F - 73.9 °F 90% 29.93 in 10.0 mi Calm Calm - 0.08 in   Mostly Cloudy
9:53 PM 78.1 °F - 75.0 °F 90% 29.94 in 10.0 mi Calm Calm - N/A   Clear
10:53 PM 78.1 °F - 75.0 °F 90% 29.94 in 5.0 mi ESE 13.8 mph 23.0 mph 0.02 in Rain Rain
11:53 PM 77.0 °F - 75.0 °F 94% 29.93 in 10.0 mi NNE 4.6 mph - 0.06 in   Partly Cloudy